Weather History for EGDX - October, 2012

Change the Weather History Date:

Saturday, October 27, 2012

  Actual Average Record
Temperature  
Mean Temperature 42 °F -  
Max Temperature 49 °F 50 °F - ()
Min Temperature 34 °F 41 °F - ()
Degree Days  
Heating Degree Days 24    
Moisture  
Dew Point 28 °F    
Average Humidity 57    
Maximum Humidity 70    
Minimum Humidity 33    
Precipitation  
Precipitation 0.00 in - - ()
Sea Level Pressure  
Sea Level Pressure 30.13 in    
Wind  
Wind Speed 11 mph ()    
Max Wind Speed 16 mph    
Max Gust Speed -    
Visibility 6.2 miles    
Events      
T = Trace of Precipitation, MM = Missing Value Source: Averaged Metar Reports

Daily Weather History Graph

Daily Weather History Graph

Search for Another Location

Airport or City:

Trip Planner

Search our weather history database for the weather conditions in past years. The results will help you decide how hot, cold, wet, or windy it might be!

Date:

Astronomy

Oct. 27, 2012 Rise Set
Actual Time 7:58 AM BST 5:55 PM BST
Civil Twilight 7:24 AM BST 6:30 PM BST
Nautical Twilight 6:45 AM BST 7:09 PM BST
Astronomical Twilight 6:06 AM BST 7:47 PM BST
Moon 4:42 PM BST (10/27) 5:28 AM BST (10/27)
Length of Visible Light 11h 05m
Length of Day
9h 56m
Waxing Gibbous, 95% of the Moon is Illuminated
Oct 27
Waxing Gibbous
Oct 29
Full
Nov 7
Last Quarter
Nov 13
New
Nov 20
First Quarter

Hourly Weather History & Observations

Time (BST) Temp. Windchill Dew Point Humidity Pressure Visibility Wind Dir Wind Speed Gust Speed Precip Events Conditions
12:50 AM 38 °F - 24 °F 44% 30.01 in 28 mi North 12.7 mph - -  
12:50 AM 37.4 °F 29.3 °F 24.8 °F 60% 29.98 in 6.2 mi North 12.7 mph - N/A   Unknown
1:50 AM 37.4 °F 30.3 °F 24.8 °F 60% 30.01 in 6.2 mi North 10.4 mph - N/A   Unknown
2:50 AM 35.6 °F 28.6 °F 24.8 °F 65% 30.01 in 6.2 mi North 9.2 mph - N/A   Unknown
3:50 AM 35 °F - 25 °F 56% 30.04 in 25 mi North 13.8 mph - -  
3:50 AM 35.6 °F 26.6 °F 24.8 °F 65% 30.01 in 6.2 mi North 13.8 mph - N/A   Unknown
4:50 AM 35.6 °F 25.9 °F 24.8 °F 65% 30.04 in 6.2 mi North 16.1 mph - N/A   Unknown
5:50 AM 35.6 °F 26.6 °F 24.8 °F 65% 30.06 in 6.2 mi North 13.8 mph - N/A   Unknown
6:50 AM 35 °F - 26 °F 60% 30.09 in 28 mi North 12.7 mph - -  
6:50 AM 35.6 °F 27.1 °F 26.6 °F 70% 30.06 in 6.2 mi North 12.7 mph - N/A   Unknown
7:50 AM 35.6 °F 26.6 °F 26.6 °F 70% 30.09 in 6.2 mi North 13.8 mph - N/A   Unknown
8:50 AM 37.4 °F 29.8 °F 28.4 °F 70% 30.12 in 6.2 mi NNE 11.5 mph - N/A   Partly Cloudy
9:50 AM 40 °F - 29 °F 53% 30.15 in 25 mi North 11.5 mph - -  
9:50 AM 41.0 °F 34.3 °F 28.4 °F 61% 30.12 in 6.2 mi North 11.5 mph - N/A   Partly Cloudy
10:50 AM 44.6 °F 37.8 °F 28.4 °F 53% 30.15 in 6.2 mi North 15.0 mph - N/A   Partly Cloudy
11:50 AM 46.4 °F 39.8 °F 28.4 °F 50% 30.15 in 6.2 mi North 16.1 mph - N/A   Partly Cloudy
12:50 PM 47 °F - 29 °F 37% 30.18 in 28 mi North 15.0 mph - -  
12:50 PM 48.2 °F - 28.4 °F 46% 30.15 in 6.2 mi North 15.0 mph - N/A   Partly Cloudy
1:50 PM 48.2 °F - 28.4 °F 46% 30.15 in 6.2 mi North 15.0 mph - N/A   Partly Cloudy
2:50 PM 48.2 °F - 28.4 °F 46% 30.15 in 6.2 mi NNW 12.7 mph - N/A   Partly Cloudy
3:50 PM 49 °F - 29 °F 33% 30.18 in 25 mi North 13.8 mph - -  
3:50 PM 48.2 °F - 28.4 °F 46% 30.15 in 6.2 mi North 13.8 mph - N/A   Unknown
4:50 PM 48.2 °F - 30.2 °F 50% 30.18 in 6.2 mi NNW 9.2 mph - N/A   Unknown
5:50 PM 46.4 °F 41.9 °F 30.2 °F 53% 30.18 in 6.2 mi North 9.2 mph - N/A   Unknown
6:50 PM 44 °F - 30 °F 46% 30.22 in 25 mi North 9.2 mph - -  
6:50 PM 44.6 °F 39.7 °F 30.2 °F 57% 30.21 in 6.2 mi North 9.2 mph - N/A   Unknown
7:50 PM 41.0 °F 36.4 °F 30.2 °F 65% 30.21 in 6.2 mi NW 6.9 mph - N/A   Unknown
8:50 PM 39.2 °F 37.0 °F 30.2 °F 70% 30.21 in 6.2 mi WNW 3.5 mph - N/A   Mostly Cloudy
9:50 PM 41 °F - 31 °F 57% 30.24 in 25 mi NNW 5.8 mph - -   Scattered Clouds
9:50 PM 41.0 °F 37.1 °F 30.2 °F 65% 30.21 in 6.2 mi NNW 5.8 mph - N/A   Partly Cloudy
10:50 PM 41.0 °F 38.0 °F 30.2 °F 65% 30.21 in 6.2 mi NW 4.6 mph - N/A   Unknown
11:50 PM 37.4 °F 32.1 °F 28.4 °F 70% 30.21 in 6.2 mi WNW 6.9 mph - N/A   Partly Cloudy